Погода Петропавловск-Камч.

Погода Петропавловск-Камч. : погода сейчас, прогноз погоды и архив. Всё, что Вы хотите узнать о погоде Петропавловск-Камч.!

Хотите узнать прогноз погоды Петропавловск-Камч.? Тогда Вам сюда: Погода Петропавловск-Камч.

Поиск расширенной информации на нашем сайте:

Другие новости

Новости СМИ2

Главная страница сайта

Новости сайта

03.07.2017

Напоминаем, что на нашем специализированном сайте Метеоцентр.Азия вы можете получить высокодетализированные автоматические прогнозы погоды по пунктам России, СНГ и мира в авиационном формате (включающие направление и скорость ветра, видимость, явления погоды, количество и форму облачности, нижнюю и верхнюю границу облачности).


Погода Петропавловск-Камч. - сегодня

Время (UTC), дата Ветер
(°,м/с) 
Видим.   Явления Облачность Т
(°С)
Тd
(°С)
f(%) Тe
(°С)
Pmin
(гПа)
dP
(гПа)
Po
(мм)
O2
(г/м3)
Тmin Tmax R s Состояние
почвы
12 18.04.18 тихо ()   20000 м    1/1 600 м 
[Sc]
+1.1 -4.3 67 +1  1004.1  -0.6  751  302           
15 18.04.18 360 (С) 20000 м    1/1 600 м 
[Sc]
+2 -3.8 65 +1  1003.5  -0.5  750  301           
18 18.04.18 010 (С) 20000 м    1/1 600 м 
[Sc]
+3.8 -4.1 56 +2  1002.3  -1.2  749  298           
00 19.04.18 350 (С) 20000 м    8/1 600 м средняя, верхняя 
[Sc|Ac trans|Ci fib]
+5.4 -3.2 54 +4  1001  -1.1  749  296           
03 19.04.18 300 (СЗ) 5{10}  20000 м    4/1 600 м средняя, верхняя 
[Sc|Ac trans|Ci fib]
+4.8 -1.7 63 +3  1000.5  -0.5  748  296           
09 19.04.18 330 (СЗ) 3{10}  20000 м    3/0 верхняя 
[Ci fib]
+4.1 -3.7 57 +3  1000.4  0.8  748  297    +5.4       
12 19.04.18 130 (ЮВ) 20000 м    ясно 
+0.6 -2.9 77 -1  1001.5  749  301           
15 19.04.18 110 (В) 20000 м    ясно 
+0.1 -2.9 80 +1  1002.4  0.9  750  302           
18 19.04.18 360 (С) 20000 м    ясно 
-0.3 -3.7 78 -3  1003  0.6  750  303           
00 20.04.18 340 (С) 20000 м    9/9 1000 м 
[Sc]
+2.4 -5.5 56 +1  1004.9  0.7  751  301           
03 20.04.18 240 (ЮЗ) 20000 м    10/6 600 м средняя, верхняя 
[Sc|Ac trans|Ci fib]
+5 -4.9 49 +6  1005  0.2  752  298           
06 20.04.18 260 (З) 20000 м    8/4 600 м средняя, верхняя 
[Sc|Ac trans|Ci fib]
+3.5 -3.5 60 +2  1005.4  0.3  752  299           
12 20.04.18 010 (С) 20000 м    3/1 600 м средняя 
[Sc|Ac trans]
+0.5 -8.1 52 -2  1007  0.8  753  304           
15 20.04.18 010 (С) 20000 м    9/8 600 м средняя 
[Sc|Ac trans]
-0.8 -7.7 59 -4  1007.5  0.5  753  305           
18 20.04.18 350 (С) 20000 м    3/1 600 м верхняя 
[Sc|Ci fib]
-2 -7.9 64 -5  1008  0.5  754  307           
00 21.04.18 360 (С) 20000 м    ясно 
+1.3 -9.2 45 +1  1007.7  -0.2  754  303           
03 21.04.18 340 (С) 20000 м    ясно 
+3.7 -9.3 38 +5  1007.6  0.1  753  300           
06 21.04.18 290 (З) 20000 м    3/1 1000 м верхняя 
[Sc|Ci fib]
+3.2 -7.9 44 +2  1006.6  -1  753  301           
12 21.04.18 010 (С) 20000 м    1/1 1000 м 
[Sc]
-0.2 -8.8 52 -1  1006.3  -0.5  752  304           
15 21.04.18 040 (СВ) 20000 м    8/3 600 м верхняя 
[Sc|Ci fib]
-0.1 -6.1 64 -1  1004.8  -1.5  751  304           
18 21.04.18 040 (СВ) 20000 м  слаб. ливневой снег  10/10 600 м кучево-дожд. 
[Cb cap]
-0.4 -5.3 69 -2  1003.9  -0.9  751  303           
21 21.04.18 310 (СЗ) 2000 м  слаб. ливневой снег  10/10 600 м кучево-дожд. 
[Cb cap]
-1.9 -3.6 88 -5  1003.1  -0.8  750  305  -2    0.4  116  неравномерный
сухой снег
100% 
03 22.04.18 тихо ()   20000 м  {ливн. осадки}  10/6 600 м средняя 
[Sc|Ac und]
+2.2 -3.5 66 +2  999.9  -1.6  748  299           
06 22.04.18 130 (ЮВ) 20000 м  в посл. час ливневой снег  10/8 600 м кучево-дожд., средняя 
[Cb cap|Ac und]
+3.2 -5.5 53 +2  999.6  -0.2  748  298           
09 22.04.18 130 (ЮВ) 20000 м  слаб. ливневой снег  10/10 600 м кучево-дожд. 
[Cb cap]
+1.3 -2.7 75 1000.9  1.2  748  300    +4.1  0.4     
Время (UTC), дата Ветер
(°,м/с) 
Видим.   Явления Облачность Т
(°С)
Тd
(°С)
f(%) Тe
(°С)
Pmin
(гПа)
dP
(гПа)
Po
(мм)
O2
(г/м3)
Тmin Tmax R s Состояние
почвы

Для получения пояснительной информации подведите курсор к названию столбца.

ПОГОДА Петропавловск-Камч. - архив

Всё, что Вы хотите узнать о погоде Петропавловск-Камч. - удобно и подробно!

Выберите нужную дату (начиная с 1 января 2015* года) и нажмите кнопку "Найти".
Будут отображены архивные сводки погоды по пункту Петропавловск-Камч., начиная с указанной даты.


Отображать данные в формате CSV (для использования в таблицах Excel)


Внимание! Наш архив погоды предназначен исключительно для личного некоммерческого использования в познавательных целях. Если Вам необходимы официальные справки о состоянии погоды (для производственных, юридических, коммерческих и т.п. целей), обращайтесь в органы Росгидромета.

*Примечание: данная дата относится к архиву по метеостанциям СССР (Россия, СНГ, Балтия).
Архив по метеостанциям Зарубежной Европы и Азии (кроме Китая) хранится 10 дней, по другим регионам земного шара (Китай, Африка, Америка, Австралия, Океания) - 1 день.

Петропавловск-Камч. - район местоположения метеостанции


Название, широта, долгота, высота метеостанции:
Петропавловск-Камч. (обсерватория) 53°ш. 158.6°д. 24 м над ур. моря [Российская Федерация]

Дополнительная информация

В oтличие oт бoльшинства пoгoдных сайтoв мы публикуем пoдрoбную метеoинфoрмацию в детальнoм прoфессиoнальнoм фoрмате.

Характеристики температуры и влажнoсти вoздуха измеряются на высoте 2 м в тени вдали oт зданий и деревьев.
Скoрoсть ветра измеряется на высoте 10 м (на урoвне рoста челoвека скoрoсть ветра ниже в 1.5-2 раза). Если метеoстанция нахoдится в гoрoде или в лесу, тo скoрoсть ветра занижена на 2-4 м/с пo сравнению с oткрытым местoм. Скoрoсть ветра над акватoриями крупных рек и oзёр, а также на вершинах хoлмoв на 2-5 м/с выше, чем в oбычных услoвиях.
Атмoсфернoе давление в разных тoчках местнoсти мoжет значительнo oтличаться oт давления на метеoстанции, в зависимoсти oт услoвий рельефа (при пoдъёме на 10 м давление пoнижается примернo на 1 мм рт.ст.).